Location: Cisewo
(53.3833°N, 14.9000°E)
Time: 10:38:12
(UTC+00:00)

Cosmos 1500 Rocket - Pass Details

Date: 18 April 2021
Orbit: 603 x 631 km, 82.5° (Epoch: 14 May)

Event Time Altitude Azimuth Distance (km) Brightness Sun altitude
Rises 20:56:20 0° 351° (N) 2,940 8.2 -20.3°
Reaches altitude 10° 20:58:38 10° 356° (N) 2,026 7.1 -20.5°
Maximum altitude 21:03:03 54° 74° (ENE) 774 3.9 -20.9°
Enters shadow 21:03:43 48° 108° (ESE) 824 3.8 -20.9°
